Location: Ciula Mare
(45.6000°N, 22.8167°E)
Time: 11:38:12
(UTC+00:00)

Cosmos 1844 - Pass Details

Date: 03 February 2023
Orbit: 822 x 868 km, 70.9° (Epoch: 30 March)

Event Time Altitude Azimuth Distance (km) Brightness Sun altitude
Rises 16:13:08 0° 338° (NNW) 3,464 7.0 -6.7°
Reaches altitude 10° 16:15:50 10° 347° (NNW) 2,523 6.2 -7.1°
Maximum altitude 16:21:10 36° 53° (NE) 1,340 4.3 -8.0°
Drops below altitude 10° 16:26:27 10° 120° (ESE) 2,498 5.7 -8.9°
Sets 16:29:05 0° 129° (SE) 3,425 6.5 -9.4°
